Flag for U.S.A. Weather past 2 weeks in San Diego, California, U.S.A.

Now
66 °F

Passing clouds.


Feels Like: 66 °F
Forecast: 62 / 67 °F
Wind: No wind

Location: San Diego - North Island


UV Index: 0 (Low)

Visibility: 8 mi


Pressure: 29.85 "Hg

Humidity: 65%

Dew point: 54 °F

Location of San DiegoLocation

Historic Weather in San Diego

°F

San Diego temperature yesterday

Maximum temperature yesterday: 71 °F (at 3:52 PM)
Minimum temperature yesterday: 64 °F (at 2:52 AM)
Average temperature yesterday: 66 °F

Past Weeks' High & Low Weather Summary

 TemperatureHumidityPressure
High84 °F (Apr 8, 1:52 PM)80% (Apr 15, 1:52 AM)30.14 "Hg (Apr 15, 1:52 AM)
Low53 °F (Apr 3, 6:52 AM)23% (Apr 7, 12:52 PM)29.81 "Hg (Apr 16, 3:52 PM)
Average67 °F57%29.97 "Hg
* Reported Apr 3 4:52 AM — Apr 18 4:52 AM, San Diego, Weather by CustomWeather, © 2014

Note: Actual official high and low records may vary slightly from our data, if they occured in-between our weather recording intervals... More about our weather records

Advertising

Historic Weather Conditions — Data for Previous 24 hours

 ConditionsComfort  
Time TempWeatherWind HumidityBarometerVisibility
4:52 AM
Apr 18
66 °FPartly cloudy.No wind65%29.85 "Hg8 mi
3:52 AM66 °FPassing clouds.7 mph65%29.87 "Hg8 mi
2:52 AM65 °FPassing clouds.6 mph68%29.87 "Hg8 mi
1:52 AM66 °FPassing clouds.7 mph68%29.89 "Hg8 mi
12:52 AM66 °FPassing clouds.5 mph65%29.90 "Hg8 mi
11:52 PM
Apr 17
66 °FMostly cloudy.3 mph65%29.90 "Hg9 mi
10:52 PM66 °FOvercast.6 mph65%29.91 "Hg8 mi
9:52 PM66 °FOvercast.3 mph68%29.92 "Hg9 mi
8:52 PM66 °FOvercast.7 mph65%29.91 "Hg9 mi
7:52 PM66 °FOvercast.6 mph63%29.88 "Hg8 mi
6:52 PM66 °FPartly sunny.9 mph63%29.88 "Hg9 mi
5:52 PM68 °FBroken clouds.8 mph59%29.88 "Hg9 mi
4:52 PM69 °FPartly sunny.9 mph57%29.86 "Hg9 mi
3:52 PM71 °FPartly sunny.10 mph55%29.88 "Hg9 mi
2:52 PM69 °FBroken clouds.8 mph57%29.89 "Hg8 mi
1:52 PM70 °FMostly cloudy.10 mph57%29.90 "Hg8 mi
12:52 PM69 °FMostly cloudy.8 mph59%29.91 "Hg7 mi
11:52 AM68 °FPartly sunny.6 mph61%29.91 "Hg7 mi
10:52 AM67 °FOvercast.6 mph63%29.91 "Hg7 mi
9:52 AM66 °FOvercast.5 mph63%29.91 "Hg7 mi
8:52 AM65 °FOvercast.7 mph68%29.90 "Hg6 mi
7:52 AM65 °FOvercast.6 mph66%29.89 "Hg6 mi
6:52 AM65 °FOvercast.10 mph68%29.88 "Hg7 mi
Weather by CustomWeather, © 2014

See weather overview